Погода в Сан-Северо

Италия     41°41′33″N   15°22′45″E
темп.,
°C
ветер,
м/с
пор.,
м/с
влажн.,
%
обл.,
%
осадки,
мм/ч
давл.,
гПа
погр.,
м
9 мая, вс
вс923:00+12с23835 0.0 102130
02:00+11ссв22775 0.0 102123
05:00+11ссв22730 0.0 102014
08:00+16ссз12550 0.0 1020241
11:00+22сз12390 0.0 1020954
14:00+25сз13310 0.0 10191480
17:00+24ююв12305 0.0 10181203
20:00+16ююз355613 0.0 1018100
10 мая, пн
пн1023:00+14юв364940 0.0 101992
02:00+14юв334598 0.0 101842
05:00+14юв22525 0.0 101829
08:00+18ююв344962 0.0 1018223
11:00+24ю343832 0.0 1017926
14:00+28ююв34280 0.0 10161771
17:00+26ююв45350 0.0 10151044
20:00+19юв47553 0.0 1015111
11 мая, вт
вт1123:00+16ююв35605 0.0 101567
02:00+15юв226713 0.0 101413
05:00+15юв226654 0.0 101323
08:00+20ююв45550 0.0 1013248
11:00+26ююв56356 0.0 1012885
14:00+30ю562356 0.0 10092423
17:00+28ююз68314 0.0 10091946
20:00+21юз4104581 0.1 1009436
12 мая, ср
ср1223:00+16юз386559 0.0 1010209
02:00+16ююз613703 0.0 1008473
05:00+13ююв23745 0.0 100843
08:00+17ююз58560 0.0 1008969
11:00+21зюз68392 0.0 10071861
14:00+22юз983512 0.0 10072409
17:00+19юз1010426 0.0 10071632
20:00+15юз6124954 0.0 1006725
13 мая, чт
чт1323:00+13з485780 0.0 1009290
02:00+12ююз236217 0.0 100897
05:00+10юв22750 0.0 100827
08:00+15ююз48595 0.0 1007785
11:00+20юз8103827 0.0 10062180
14:00+22юз10113635 0.0 10062329
17:00+21зюз911375 0.0 10061996
20:00+16юз611530 0.0 1007525